Location: Akdamlar
(36.8729°N, 30.5187°E)
Time: 15:29:54
(UTC+00:00)

Cosmos 1092 Rocket - Pass Details

Date: 18 September 2020
Orbit: 954 x 995 km, 82.9° (Epoch: 19 October)

Event Time Altitude Azimuth Distance (km) Brightness Sun altitude
Rises 18:07:15 0° 357° (N) 3,641 7.3 -25.5°
Reaches altitude 10° 18:09:47 10° 0° (N) 2,694 6.6 -25.9°
Enters shadow 18:15:36 62° 67° (ENE) 1,071 3.9 -27.0°
